Regional Weather Roundup
Issued by NWS

Home | Current Version | Previous Version | Graphics & Text | Print | Product List | Glossary On
Versions: 1 2 3 4 5 6 7 8 9 10 11 12 13 14 15 16 17 18 19 20 21 22 23 24 25 26 27 28 29 30 31 32 33 34 35 36 37 38 39 40 41 42 43 44 45 46 47 48 49 50
000
ASUS43 KOAX 251702
RWRNE

WEATHER ROUNDUP FOR NEBRASKA
NATIONAL WEATHER SERVICE OMAHA NE
1200 PM CDT SUN JUN 25 2017

NOTES: SATELLITE DATA IS BEING USED TO AUGMENT CLOUD COVER ABOVE
       12000 FEET.
       "FAIR" INDICATES FEW OR NO CLOUDS BELOW 12,000 FEET WITH NO
       SIGNIFICANT WEATHER AND/OR OBSTRUCTIONS TO VISIBILITY.

  * THESE STATIONS DO NOT REPORT WEATHER SUCH AS RAIN...SNOW OR FOG.

NEZ001>004-019>022-054>056-251800-
NEBRASKA PANHANDLE

CITY           SKY/WX    TMP DP  RH WIND       PRES   REMARKS
SCOTTSBLUFF    MOSUNNY   71  40  32 SE13      30.34F
ALLIANCE       SUNNY     68  40  35 S13       30.35F
CHADRON        SUNNY     72  38  29 VRB7      30.31F
GORDON         FAIR      70  38  31 SE7       30.33F
KIMBALL        CLOUDY    64  42  44 SE13      30.39S
SIDNEY         CLOUDY    66  38  35 SE15G28   30.38S
$$

NEZ057>060-069>072-079>082-251800-
SOUTHWEST NEBRASKA

CITY           SKY/WX    TMP DP  RH WIND       PRES   REMARKS
NORTH PLATTE   SUNNY     69  43  38 SE13      30.35F
IMPERIAL       MOSUNNY   66  40  38 E18       30.36F
LEXINGTON      CLOUDY    66  43  42 E7        30.37S
MCCOOK         CLOUDY    61  47  59 E6        30.38S
OGALLALA       MOSUNNY   70  44  38 E14       30.35F
$$

NEZ005>010-023>029-035>040-094-251800-
NORTH CENTRAL NEBRASKA

CITY           SKY/WX    TMP DP  RH WIND       PRES   REMARKS
VALENTINE      SUNNY     71  30  21 CALM      30.34S
AINSWORTH      SUNNY     68  37  32 NE5       30.35S
BROKEN BOW     SUNNY     70  39  32 VRB5      30.35F
O`NEILL        SUNNY     68  38  33 N8        30.34S
ORD            SUNNY     70  33  25 NE5       30.34F
THEDFORD       SUNNY     71  34  25 E3        30.35F
$$

NEZ041-046>049-061>064-073>077-083>087-251800-
SOUTH CENTRAL NEBRASKA

CITY           SKY/WX    TMP DP  RH WIND       PRES   REMARKS
GRAND ISLAND   SUNNY     68  43  40 VRB3      30.36F
AURORA         SUNNY     68  40  36 NE5       30.35F
HASTINGS       PTSUNNY   67  40  37 VRB3      30.37F
HEBRON         CLOUDY    66  46  48 CALM      30.36R
HOLDREGE       CLOUDY    58  49  71 SE3       30.37S
KEARNEY *      MOSUNNY   66  41  39 CALM      30.37F
YORK           MOSUNNY   70  39  32 NW8       30.35F
$$

NEZ011>018-030>034-042>045-251800-
NORTHEAST NEBRASKA

CITY           SKY/WX    TMP DP  RH WIND       PRES   REMARKS
NORFOLK        SUNNY     68  40  35 N8G20     30.32S
ALBION         SUNNY     71  37  28 N10G16    30.34S
BLAIR          SUNNY     67  42  40 NW16G24   30.32S
FREMONT        SUNNY     69  42  38 W8G18     30.33F
TEKAMAH        SUNNY     70  41  34 N14G25    30.31S
WAYNE          SUNNY     68  41  37 N16G24    30.31F
$$

NEZ050>053-065>068-078-088>093-251800-
SOUTHEAST NEBRASKA

CITY           SKY/WX    TMP DP  RH WIND       PRES   REMARKS
LINCOLN        CLOUDY    69  42  37 N10       30.34S
OMAHA EPPLEY   MOSUNNY   70  43  37 NW16      30.31F
BEATRICE       CLOUDY    70  44  40 N7        30.34S
FALLS CITY     MOSUNNY   70  46  42 N7        30.32S
NEBRASKA CITY  MOSUNNY   69  44  41 NW10G18   30.32S
PLATTSMOUTH    SUNNY     68  43  40 N8        30.32S
$$

NEZ044-045-051>053-067-251800-
OMAHA AREA

CITY           SKY/WX    TMP DP  RH WIND       PRES   REMARKS
OMAHA EPPLEY   MOSUNNY   70  43  37 NW16      30.31F
BLAIR          SUNNY     67  42  40 NW16G24   30.32S
FREMONT        SUNNY     69  42  38 W8G18     30.33F
MILLARD        SUNNY     70  44  38 NW12      30.32S
OFFUTT AFB     SUNNY     69  44  39 NW13      30.31S
PLATTSMOUTH    SUNNY     68  43  40 N8        30.32S
WAHOO          FAIR      70  37  30 NW14G21   30.33F
$$




USA.gov is the U.S. government's official web portal to all federal, state and local government web resources and services.